{"data":{"norad_id":63898,"epoch":"2026-05-25T04:40:33.058848Z","epoch_age_seconds":61760,"freshness":"FRESH","line1":"1 63898U 25095J   26145.19482707  .00027812  00000+0  10161-2 0  9991","line2":"2 63898  43.0016 103.6953 0001310 278.1059  81.9644 15.27589686 59490","mean_motion":15.27589686,"eccentricity":0.000131,"inclination_deg":43.0016,"raan_deg":103.6953,"arg_perigee_deg":278.1059,"mean_anomaly_deg":81.9644,"bstar":0.0010161,"rev_number":5949,"period_min":94.266150995733,"perigee_km":482.12128124522,"apogee_km":483.91890440355,"semimajor_km":6861.1570928244,"source":"CELESTRAK","updated_at":"2026-05-25T13:38:20.176501Z"}}